Hourly Weather Alitub

Today, 6 March, Saturday

Time Temperature Precipitation Wind Pressure Humidity
00:00 +3°C° 0 mm 4 mps 760 mmHg 84%
01:00 +3°C° 0 mm 4 mps 760 mmHg 85%
02:00 +3°C° 0 mm 3 mps 760 mmHg 87%
03:00 +4°C° 0 mm 2 mps 760 mmHg 87%
04:00 +3°C° 0 mm 3 mps 759 mmHg 87%
05:00 +3°C° 0 mm 3 mps 759 mmHg 88%
06:00 +2°C° 0 mm 3 mps 759 mmHg 89%
07:00 +3°C° 0 mm 3 mps 759 mmHg 89%
08:00 +4°C° 0 mm 4 mps 759 mmHg 89%
09:00 +4°C° 0 mm 4 mps 759 mmHg 90%
10:00 +5°C° 0 mm 4 mps 759 mmHg 86%
11:00 +5°C° 0 mm 4 mps 759 mmHg 83%
12:00 +6°C° 0 mm 4 mps 759 mmHg 80%
13:00 +5°C° 0.1 mm 4 mps 759 mmHg 83%
14:00 +3°C° 0.1 mm 5 mps 759 mmHg 85%
15:00 +2°C° 0.1 mm 5 mps 759 mmHg 87%
16:00 +1°C° 0.4 mm 6 mps 759 mmHg 90%
17:00 -1°C° 0.4 mm 6 mps 759 mmHg 92%
18:00 -2°C° 0.4 mm 7 mps 759 mmHg 95%
19:00 -2°C° 0.3 mm 7 mps 760 mmHg 90%
20:00 -3°C° 0.3 mm 6 mps 761 mmHg 85%
21:00 -3°C° 0.3 mm 6 mps 762 mmHg 80%
22:00 -3°C° 0 mm 6 mps 763 mmHg 75%
23:00 -4°C° 0 mm 6 mps 764 mmHg 70%

Tomorrow, 7 March, Sunday

Time Temperature Precipitation Wind Pressure Humidity
00:00 -4°C° 0 mm 6 mps 765 mmHg 66%
01:00 -5°C° 0 mm 5 mps 766 mmHg 65%
02:00 -4°C° 0 mm 4 mps 766 mmHg 65%
03:00 -5°C° 0 mm 4 mps 767 mmHg 64%
04:00 -5°C° 0 mm 3 mps 768 mmHg 64%
05:00 -5°C° 0 mm 3 mps 768 mmHg 63%
06:00 -4°C° 0 mm 2 mps 768 mmHg 63%
07:00 -4°C° 0 mm 3 mps 768 mmHg 61%
08:00 -2°C° 0 mm 3 mps 768 mmHg 58%
09:00 -3°C° 0 mm 4 mps 769 mmHg 56%
10:00 -2°C° 0 mm 5 mps 768 mmHg 53%
11:00 -1°C° 0 mm 5 mps 768 mmHg 51%
12:00 -1°C° 0 mm 6 mps 767 mmHg 48%
13:00 -1°C° 0 mm 6 mps 767 mmHg 48%
14:00 -1°C° 0 mm 7 mps 766 mmHg 48%
15:00 0°C° 0 mm 7 mps 766 mmHg 49%
16:00 -1°C° 0 mm 7 mps 765 mmHg 53%
17:00 -2°C° 0 mm 6 mps 765 mmHg 57%
18:00 -1°C° 0 mm 5 mps 764 mmHg 61%
19:00 -3°C° 0 mm 6 mps 764 mmHg 63%
20:00 -3°C° 0 mm 6 mps 764 mmHg 65%
21:00 -3°C° 0 mm 7 mps 764 mmHg 67%
22:00 -3°C° 0 mm 7 mps 764 mmHg 68%
23:00 -3°C° 0 mm 7 mps 763 mmHg 68%

Day after tomorrow, 8 March, Monday

Time Temperature Precipitation Wind Pressure Humidity
00:00 -3°C° 0 mm 7 mps 763 mmHg 69%
01:00 -3°C° 0 mm 7 mps 763 mmHg 69%
02:00 -3°C° 0 mm 7 mps 762 mmHg 70%
03:00 -3°C° 0 mm 7 mps 762 mmHg 70%
04:00 -3°C° 0 mm 7 mps 762 mmHg 71%
05:00 -3°C° 0 mm 6 mps 762 mmHg 72%
06:00 -3°C° 0 mm 6 mps 761 mmHg 73%
07:00 -2°C° 0 mm 7 mps 761 mmHg 70%
08:00 -1°C° 0 mm 8 mps 761 mmHg 68%
09:00 0°C° 0 mm 8 mps 761 mmHg 65%
10:00 +1°C° 0 mm 8 mps 761 mmHg 62%
11:00 +2°C° 0 mm 9 mps 761 mmHg 58%
12:00 +3°C° 0 mm 9 mps 761 mmHg 55%
13:00 +3°C° 0 mm 9 mps 760 mmHg 55%
14:00 +3°C° 0 mm 9 mps 760 mmHg 56%
15:00 +3°C° 0 mm 9 mps 760 mmHg 56%
16:00 +2°C° 0 mm 8 mps 760 mmHg 61%
17:00 +2°C° 0 mm 7 mps 760 mmHg 65%
18:00 +2°C° 0 mm 6 mps 760 mmHg 70%
19:00 +1°C° 0 mm 5 mps 760 mmHg 74%
20:00 +1°C° 0 mm 5 mps 760 mmHg 78%
21:00 0°C° 0 mm 4 mps 760 mmHg 82%
22:00 0°C° 0.1 mm 4 mps 760 mmHg 86%
23:00 0°C° 0.1 mm 4 mps 760 mmHg 89%

9 March, Tuesday

Time Temperature Precipitation Wind Pressure Humidity
00:00 0°C° 0.1 mm 4 mps 760 mmHg 93%
01:00 -1°C° 0.3 mm 4 mps 760 mmHg 94%
02:00 0°C° 0.3 mm 3 mps 760 mmHg 95%
03:00 0°C° 0.3 mm 3 mps 760 mmHg 95%
04:00 0°C° 0.4 mm 3 mps 759 mmHg 96%
05:00 -1°C° 0.4 mm 4 mps 759 mmHg 96%
06:00 -1°C° 0.4 mm 4 mps 759 mmHg 97%
07:00 0°C° 0.3 mm 4 mps 759 mmHg 95%
08:00 0°C° 0.3 mm 5 mps 759 mmHg 92%
09:00 0°C° 0.3 mm 5 mps 759 mmHg 90%
10:00 +1°C° 0.1 mm 5 mps 759 mmHg 84%
11:00 +2°C° 0.1 mm 6 mps 759 mmHg 79%
12:00 +2°C° 0.1 mm 6 mps 759 mmHg 73%
13:00 +3°C° 0.1 mm 6 mps 759 mmHg 69%
14:00 +3°C° 0.1 mm 7 mps 759 mmHg 65%
15:00 +3°C° 0.1 mm 7 mps 759 mmHg 61%
16:00 +2°C° 0 mm 7 mps 759 mmHg 64%
17:00 0°C° 0 mm 7 mps 759 mmHg 67%
18:00 -1°C° 0 mm 6 mps 760 mmHg 70%
19:00 -2°C° 0 mm 6 mps 760 mmHg 71%
20:00 -2°C° 0 mm 5 mps 761 mmHg 72%
21:00 -2°C° 0 mm 4 mps 762 mmHg 73%
22:00 -2°C° 0 mm 3 mps 763 mmHg 71%
23:00 -2°C° 0 mm 3 mps 763 mmHg 69%

10 March, Wednesday

Time Temperature Precipitation Wind Pressure Humidity
00:00 -2°C° 0 mm 2 mps 763 mmHg 67%
01:00 -2°C° 0 mm 2 mps 764 mmHg 66%
02:00 -2°C° 0 mm 3 mps 764 mmHg 64%
03:00 -2°C° 0 mm 3 mps 764 mmHg 62%
04:00 -2°C° 0 mm 3 mps 765 mmHg 63%
05:00 -4°C° 0 mm 4 mps 765 mmHg 63%
06:00 -4°C° 0 mm 4 mps 766 mmHg 63%
07:00 -4°C° 0 mm 4 mps 766 mmHg 61%
08:00 -4°C° 0 mm 4 mps 767 mmHg 59%
09:00 -4°C° 0 mm 4 mps 767 mmHg 57%
10:00 -4°C° 0 mm 4 mps 768 mmHg 53%
11:00 -2°C° 0 mm 3 mps 768 mmHg 49%
12:00 -2°C° 0 mm 3 mps 768 mmHg 45%
13:00 -1°C° 0 mm 3 mps 768 mmHg 43%
14:00 -1°C° 0 mm 3 mps 768 mmHg 41%
15:00 0°C° 0 mm 3 mps 768 mmHg 39%
16:00 -1°C° 0 mm 3 mps 768 mmHg 43%
17:00 -2°C° 0 mm 3 mps 768 mmHg 46%
18:00 -2°C° 0 mm 3 mps 767 mmHg 49%
19:00 -4°C° 0 mm 3 mps 768 mmHg 51%
20:00 -4°C° 0 mm 3 mps 768 mmHg 54%
21:00 -5°C° 0 mm 3 mps 768 mmHg 57%
22:00 -5°C° 0 mm 3 mps 768 mmHg 57%
23:00 -5°C° 0 mm 3 mps 768 mmHg 57%

11 March, Thursday

Time Temperature Precipitation Wind Pressure Humidity
00:00 -6°C° 0 mm 3 mps 768 mmHg 57%
01:00 -6°C° 0 mm 3 mps 768 mmHg 57%
02:00 -6°C° 0 mm 3 mps 768 mmHg 57%
03:00 -6°C° 0 mm 3 mps 768 mmHg 57%
04:00 -6°C° 0 mm 3 mps 768 mmHg 57%
05:00 -6°C° 0 mm 3 mps 768 mmHg 58%
06:00 -6°C° 0 mm 3 mps 768 mmHg 59%
07:00 -6°C° 0 mm 3 mps 769 mmHg 56%
08:00 -5°C° 0 mm 3 mps 769 mmHg 53%
09:00 -5°C° 0 mm 3 mps 769 mmHg 49%
10:00 -4°C° 0 mm 3 mps 769 mmHg 44%
11:00 -2°C° 0 mm 3 mps 769 mmHg 38%
12:00 -1°C° 0 mm 3 mps 768 mmHg 33%
13:00 +1°C° 0 mm 2 mps 768 mmHg 32%
14:00 +1°C° 0 mm 2 mps 768 mmHg 31%
15:00 +2°C° 0 mm 2 mps 768 mmHg 30%
16:00 +1°C° 0 mm 2 mps 768 mmHg 34%
17:00 -1°C° 0 mm 2 mps 768 mmHg 38%
18:00 +1°C° 0 mm 1 mps 768 mmHg 42%
19:00 0°C° 0 mm 1 mps 768 mmHg 44%
20:00 -2°C° 0 mm 2 mps 768 mmHg 46%
21:00 -3°C° 0 mm 2 mps 769 mmHg 48%
22:00 -3°C° 0 mm 2 mps 769 mmHg 50%
23:00 -3°C° 0 mm 2 mps 769 mmHg 53%
Show more